www.pogodaiklimat.ru

Погода и климат >> Архив погоды >> Австрия >> Луцмансбург


ПОГОДА в Луцмансбурге

  • Прогноз погоды в Луцмансбурге
  • Монитор погоды в Луцмансбурге

АРХИВ ПОГОДЫ в Луцмансбурге

Время (UTC), дата Ветер
(напр.,м/с)
 
Видим.   Явления Облачность Т
(С)
Тd
(С)
f
(%)
Тe
(С)
Тes
(С)
Комфортность P
(гПа)
Po
(гПа)
Тmin
(С)
Tmax
(С)
R
(мм)
R24
(мм)
S
(см)
22 10.06 В 1 н/о н/о +18.4 +16.7 90 +20 +20 1012.7 989.5
23 10.06 З 1 н/о н/о +19.4 +16.6 84 +22 +22 комфорт 1012.5 989.3
00 11.06 В 1 н/о н/о +17.6 +15.9 90 +19 +19 1012.2 988.9
01 11.06 В 1 н/о н/о +17.3 +16.0 92 +18 +18 1012.1 988.8
02 11.06 штиль 0 н/о н/о +16.3 +15.3 94 +16 +16 1011.6 988.2
03 11.06 штиль 0 н/о н/о +16.2 +15.3 94 +16 +16 1011.5 988.1
04 11.06 штиль 0 н/о н/о +16.4 +15.4 94 +16 +16 1011.9 988.5
05 11.06 СЗ 1 н/о н/о +19.1 +16.9 87 +22 +22 комфорт 1011.8 988.6
06 11.06 В 1 н/о н/о +23.0 +19.1 79 +29 +29 очень
душно
1011.5 988.7 +15.8 +27.2
07 11.06 ЮВ 2 н/о н/о +26.0 +19.7 68 +32 +32 очень
душно
1011.4 988.8
08 11.06 В 2 н/о н/о +27.2 +19.9 64 +33 +33 очень
душно
1011.6 989.1
09 11.06 ЮВ 2 н/о н/о +28.9 +20.2 59 +35 +35 очень
душно
1011.5 989.1
10 11.06 ЮВ 3 н/о н/о +29.6 +18.8 52 +35 +35 очень
душно
1011.3 989.0
11 11.06 ЮВ 3 н/о н/о +30.1 +19.0 51 +35 +35 очень
душно
1011.2 988.9
12 11.06 ЮВ 3 н/о н/о +30.6 +19.1 50 +36 +36 очень
душно
1010.9 988.6
13 11.06 ЮВ 3 н/о н/о +30.6 +17.2 45 +35 +35 очень
душно
1010.5 988.2
14 11.06 ЮВ 3 н/о н/о +30.6 +17.4 45 +35 +35 очень
душно
1010.3 988.0
15 11.06 ЮВ 3 н/о н/о +30.5 +17.2 45 +34 +34 очень
душно
1010.1 987.8
16 11.06 ЮВ 2 н/о н/о +30.2 +17.7 47 +34 +34 очень
душно
1010.0 987.7
17 11.06 Ю 2 н/о н/о +28.7 +18.5 54 +34 +34 очень
душно
1011.0 988.6
18 11.06 ЮВ 1 н/о н/о +26.6 +19.1 63 +32 +32 очень
душно
1011.1 988.5 +22.2 +31.0
19 11.06 Ю 2 н/о н/о +25.8 +18.6 64 +31 +31 очень
душно
1011.2 988.6
20 11.06 ЮВ 1 н/о н/о +24.4 +18.2 68 +29 +29 душно 1012.1 989.3
21 11.06 Ю 1 н/о н/о +23.9 +18.3 71 +28 +28 душно 1012.3 989.5
22 11.06 Ю 2 н/о н/о +24.1 +17.9 68 +28 +28 душно 1011.8 989.0
23 11.06 СЗ 1 н/о н/о +21.1 +17.6 80 +25 +25 комфорт 1011.8 988.8
00 12.06 ЮВ 2 н/о н/о +20.5 +17.1 81 +24 +24 комфорт 1010.9 987.9
01 12.06 штиль 0 н/о н/о +19.0 +15.7 81 +20 +20 1010.7 987.5
02 12.06 СВ 1 н/о н/о +17.1 +14.8 86 +18 +18 1010.4 987.1
03 12.06 ЮВ 1 н/о н/о +16.7 +14.6 87 +18 +18 1011.4 988.0
04 12.06 ЮВ 1 н/о н/о +16.9 +14.4 85 +18 +18 1011.8 988.4
05 12.06 Ю 2 н/о н/о +21.6 +15.5 68 +25 +25 комфорт 1011.7 988.7
06 12.06 ЮВ 2 н/о н/о +23.0 +15.8 64 +27 +27 душно 1011.8 988.9 +15.7 +26.9
07 12.06 ЮВ 2 н/о н/о +25.7 +16.4 56 +29 +29 душно 1011.6 988.9
08 12.06 ЮВ 3 н/о н/о +27.1 +16.9 54 +31 +31 душно 1011.9 989.3
09 12.06 ЮВ 4 н/о н/о +28.1 +17.0 51 +32 +32 душно 1011.7 989.2
10 12.06 Ю 3 н/о н/о +28.9 +17.2 49 +33 +33 очень
душно
1011.5 989.1
11 12.06 ЮВ 4 н/о н/о +29.1 +17.2 49 +33 +33 очень
душно
1011.2 988.8
12 12.06 ЮВ 3 н/о н/о +30.2 +18.4 49 +35 +35 очень
душно
1010.7 988.4 0.0
13 12.06 ЮВ 3 н/о н/о +30.2 +18.4 49 +35 +35 очень
душно
1010.4 988.1 0.0
14 12.06 ЮВ 3 н/о н/о +30.5 +18.4 48 +35 +35 очень
душно
1010.3 988.0
15 12.06 ЮВ 3 н/о н/о +30.4 +18.1 48 +35 +35 очень
душно
1009.9 987.6 0.0
16 12.06 ЮВ 3 н/о н/о +29.5 +18.1 50 +34 +34 очень
душно
1009.6 987.3
17 12.06 ЮВ 3 н/о н/о +28.8 +19.6 58 +35 +35 очень
душно
1009.5 987.1
18 12.06 ЮВ 2 н/о н/о +27.6 +19.9 63 +34 +34 очень
душно
1009.7 987.3 +22.7 +30.5 0.0
19 12.06 В 1 н/о н/о +25.5 +19.8 71 +31 +31 очень
душно
1010.1 987.5
20 12.06 В 1 н/о н/о +23.5 +19.4 78 +29 +29 душно 1010.9 988.1
21 12.06 Ю 2 н/о н/о +24.5 +19.0 71 +29 +29 душно 1011.1 988.4
22 12.06 ЮВ 2 н/о н/о +24.1 +18.8 72 +29 +29 душно 1010.9 988.2
23 12.06 ЮВ 2 н/о н/о +22.2 +18.9 82 +28 +28 душно 1011.3 988.4
00 13.06 штиль 0 н/о н/о +19.6 +17.9 90 +22 +22 комфорт 1011.5 988.4
01 13.06 штиль 0 н/о н/о +18.7 +17.5 93 +20 +20 1011.2 988.0
02 13.06 В 1 н/о н/о +18.3 +17.2 93 +20 +20 1011.1 987.9
03 13.06 штиль 0 н/о н/о +18.7 +17.7 94 +20 +20 1011.2 988.0
04 13.06 штиль 0 н/о н/о +18.8 +17.8 94 +20 +20 1011.6 988.4
05 13.06 В 1 н/о н/о +20.5 +18.5 88 +25 +25 комфорт 1011.8 988.8
06 13.06 Ю 2 н/о н/о +24.1 +19.0 73 +29 +29 душно 1011.8 989.0 +18.1 +27.8
07 13.06 Ю 2 н/о н/о +26.3 +19.7 67 +32 +32 очень
душно
1011.7 989.1
08 13.06 ЮВ 2 н/о н/о +27.6 +20.1 64 +34 +34 очень
душно
1011.7 989.2
09 13.06 В 3 н/о н/о +28.2 +20.6 63 +35 +35 очень
душно
1011.6 989.2
10 13.06 ЮВ 2 н/о н/о +29.3 +19.1 54 +35 +35 очень
душно
1011.6 989.2
11 13.06 В 3 н/о н/о +30.5 +19.8 53 +37 +37 очень
душно
1011.2 988.9
12 13.06 ЮВ 3 н/о н/о +30.9 +18.4 47 +36 +36 очень
душно
1010.8 988.6
13 13.06 ЮВ 3 н/о н/о +30.6 +18.6 49 +36 +36 очень
душно
1010.8 988.5
14 13.06 ЮВ 3 н/о н/о +31.6 +18.8 47 +37 +37 очень
душно
1010.6 988.4
15 13.06 ЮВ 3 н/о н/о +31.5 +17.7 44 +36 +36 очень
душно
1010.3 988.1
16 13.06 ЮВ 4 н/о н/о +30.9 +16.8 43 +34 +34 душно 1010.1 987.9
17 13.06 Ю 2 н/о н/о +30.5 +16.4 43 +34 +34 очень
душно
1010.3 988.0
18 13.06 Ю 2 н/о н/о +29.1 +16.5 47 +33 +33 очень
душно
1010.4 988.0 +23.9 +31.8
19 13.06 Ю 2 н/о н/о +26.9 +16.6 53 +30 +30 душно 1010.5 988.0
20 13.06 Ю 2 н/о н/о +25.7 +15.0 52 +29 +29 душно 1011.4 988.7
21 13.06 З 1 н/о н/о +24.9 +13.8 50 +27 +27 жарко 1011.6 988.9
22 13.06 ЮЗ 1 н/о н/о +21.9 +14.3 62 +25 +25 комфорт 1012.3 989.3
23 13.06 штиль 0 н/о н/о +17.3 +14.1 81 +17 +17 1013.1 989.7
00 14.06 ЮЗ 1 н/о н/о +17.4 +14.0 80 +18 +18 1013.8 990.4
01 14.06 З 1 н/о н/о +16.9 +13.8 82 +18 +18 1013.9 990.5
02 14.06 З 1 н/о н/о +16.3 +13.7 85 +17 +17 1014.2 990.7
03 14.06 З 1 н/о н/о +15.6 +13.5 87 +16 +16 1015.5 991.9
04 14.06 З 2 н/о н/о +17.3 +13.9 80 +18 +18 1015.9 992.5
05 14.06 З 1 н/о н/о +19.1 +14.7 76 +22 +22 комфорт 1016.3 993.0
06 14.06 СЗ 4 н/о н/о +24.0 +16.7 64 +28 +28 душно 1016.3 993.4 +15.3 +29.4
07 14.06 СЗ 4 н/о н/о +25.5 +17.8 62 +30 +30 душно 1016.9 994.1
08 14.06 СЗ 2 н/о н/о +27.1 +18.2 58 +32 +32 очень
душно
1017.1 994.4
09 14.06 СЗ 1 н/о н/о +28.2 +18.9 57 +33 +33 очень
душно
1017.1 994.5
10 14.06 штиль 0 н/о н/о +29.2 +19.2 55 +35 +35 очень
душно
1017.2 994.7 0.0
11 14.06 штиль 0 н/о н/о +29.6 +19.2 54 +35 +35 очень
душно
1017.2 994.7 0.0
12 14.06 СЗ 1 н/о н/о +30.0 +18.6 50 +35 +35 очень
душно
1016.8 994.4 0.0
13 14.06 В 2 н/о н/о +30.7 +17.6 46 +35 +35 очень
душно
1016.5 994.1
14 14.06 В 2 н/о н/о +30.9 +18.7 48 +36 +36 очень
душно
1016.0 993.6
15 14.06 В 1 н/о н/о +31.5 +19.0 47 +37 +37 очень
душно
1015.5 993.2
16 14.06 В 2 н/о н/о +31.2 +19.0 48 +36 +36 очень
душно
1015.2 992.9
17 14.06 ЮВ 2 н/о н/о +30.7 +19.2 50 +36 +36 очень
душно
1014.9 992.6
18 14.06 ЮВ 1 н/о н/о +29.4 +20.0 57 +36 +36 очень
душно
1015.0 992.6 +22.4 +31.6 0.0
19 14.06 ЮВ 2 н/о н/о +27.3 +19.9 64 +33 +33 очень
душно
1015.1 992.5
20 14.06 штиль 0 н/о н/о +22.7 +19.5 82 +29 +29 очень
душно
1016.1 993.1
21 14.06 штиль 0 н/о н/о +20.7 +18.7 88 +24 +24 комфорт 1015.8 992.7
22 14.06 штиль 0 н/о н/о +19.3 +17.7 90 +21 +21 комфорт 1015.7 992.5
23 14.06 штиль 0 н/о н/о +18.3 +16.8 91 +19 +19 1015.9 992.6
00 15.06 штиль 0 н/о н/о +17.9 +16.9 94 +18 +18 1015.5 992.2
01 15.06 З 1 н/о н/о +18.1 +17.0 93 +19 +19 1014.9 991.6
02 15.06 штиль 0 н/о н/о +16.5 +15.6 94 +16 +16 1015.0 991.5
03 15.06 штиль 0 н/о н/о +16.7 +16.0 96 +17 +17 1014.4 991.0
04 15.06 штиль 0 н/о н/о +17.3 +16.3 94 +17 +17 1014.4 991.0
05 15.06 В 1 н/о н/о +20.0 +18.0 88 +24 +24 комфорт 1013.9 990.8
06 15.06 Ю 2 н/о н/о +25.0 +17.6 64 +29 +29 душно 1013.4 990.7 +16.3 +29.6
07 15.06 Ю 1 н/о н/о +27.4 +18.5 58 +32 +32 очень
душно
1013.6 991.0
08 15.06 Ю 3 н/о н/о +27.2 +18.5 59 +32 +32 очень
душно
1013.8 991.2
09 15.06 Ю 2 н/о н/о +28.8 +19.0 55 +34 +34 очень
душно
1013.6 991.1
10 15.06 Ю 3 н/о н/о +30.0 +17.1 46 +34 +34 очень
душно
1012.8 990.4
11 15.06 Ю 3 н/о н/о +30.9 +17.5 45 +35 +35 очень
душно
1012.6 990.3
12 15.06 Ю 2 н/о н/о +32.3 +18.4 44 +37 +37 очень
душно
1012.0 989.8
13 15.06 Ю 3 н/о н/о +31.6 +17.0 42 +35 +35 очень
душно
1011.7 989.5
14 15.06 ЮВ 4 н/о н/о +32.1 +17.9 43 +36 +36 очень
душно
1011.5 989.3
15 15.06 ЮВ 3 н/о н/о +30.7 +18.3 48 +36 +36 очень
душно
1011.0 988.7
16 15.06 ЮВ 2 н/о н/о +30.3 +20.6 56 +37 +37 очень
душно
1010.2 988.0
17 15.06 ЮВ 2 н/о н/о +30.0 +20.3 56 +37 +37 очень
душно
1010.1 987.8
18 15.06 ЮВ 2 н/о н/о +28.0 +18.2 55 +33 +33 очень
душно
1010.4 988.0 +23.9 +32.5
19 15.06 В 1 н/о н/о +25.8 +18.3 63 +30 +30 душно 1010.6 988.0
20 15.06 штиль 0 н/о н/о +22.9 +18.3 75 +29 +29 очень
душно
1011.5 988.6
21 15.06 штиль 0 н/о н/о +21.3 +18.1 82 +26 +26 душно 1011.8 988.8
22 15.06 СЗ 1 н/о н/о +21.4 +17.6 79 +26 +26 душно 1012.1 989.1
23 15.06 З 2 н/о н/о +23.0 +18.3 75 +29 +29 очень
душно
1012.1 989.2
00 16.06 З 1 н/о н/о +22.4 +18.6 79 +28 +28 душно 1011.9 989.0
01 16.06 З 1 н/о н/о +22.7 +17.7 73 +28 +28 душно 1012.0 989.1
02 16.06 З 1 н/о н/о +21.7 +17.7 78 +26 +26 душно 1011.8 988.8
03 16.06 З 2 н/о н/о +20.0 +17.8 87 +24 +24 комфорт 1012.2 989.1
04 16.06 З 1 н/о н/о +18.9 +17.2 90 +21 +21 комфорт 1012.5 989.3
05 16.06 штиль 0 н/о н/о +19.9 +16.8 82 +22 +22 комфорт 1012.9 989.8
06 16.06 СЗ 2 н/о н/о +23.4 +16.6 66 +28 +28 душно 1013.2 990.3 +18.6 +28.2
07 16.06 СЗ 2 н/о н/о +24.7 +17.4 64 +29 +29 душно 1013.8 991.0
08 16.06 С 1 н/о н/о +25.2 +16.6 59 +29 +29 душно 1014.4 991.6
09 16.06 СЗ 2 н/о н/о +25.3 +16.0 56 +29 +29 душно 1015.1 992.3
10 16.06 С 1 н/о н/о +26.2 +16.3 54 +30 +30 душно 1014.8 992.1 0.0
11 16.06 С 2 н/о н/о +27.1 +15.5 49 +30 +30 душно 1015.4 992.7
12 16.06 С 2 н/о н/о +26.0 +15.3 52 +29 +29 душно 1014.8 992.1 0.0
13 16.06 СЗ 3 н/о н/о +27.0 +15.7 50 +30 +30 душно 1014.9 992.3
14 16.06 СЗ 5 н/о н/о +26.1 +15.6 52 +29 +29 жарко 1014.9 992.2
15 16.06 СЗ 4 н/о н/о +25.1 +15.3 55 +28 +28 жарко 1015.2 992.4
16 16.06 СЗ 4 н/о н/о +25.1 +15.2 54 +28 +28 жарко 1015.3 992.5
17 16.06 СЗ 4
{15}
н/о н/о +23.9 +14.6 56 +27 +27 жарко 1016.1 993.2
18 16.06 СЗ 5
{15}
н/о н/о +22.6 +14.2 59 +26 +26 жарко 1015.7 992.7 +22.6 +27.9 0.0
19 16.06 СЗ 4 н/о н/о +22.1 +14.5 62 +25 +25 комфорт 1016.7 993.6
20 16.06 СЗ 4 н/о н/о +21.7 +14.4 63 +25 +25 комфорт 1017.9 994.8
21 16.06 СЗ 2 н/о н/о +21.6 +14.1 62 +24 +24 комфорт 1018.8 995.6
22 16.06 СЗ 2 н/о н/о +21.0 +14.2 65 +25 +25 комфорт 1018.7 995.5
23 16.06 СЗ 2 н/о н/о +20.2 +13.8 67 +23 +23 комфорт 1018.5 995.2
00 17.06 СЗ 2 н/о н/о +20.0 +13.7 67 +23 +23 комфорт 1018.8 995.5
01 17.06 СЗ 4 н/о н/о +20.1 +13.5 66 +22 +22 комфорт 1018.5 995.2
02 17.06 СЗ 3 н/о н/о +19.4 +13.4 68 +21 +21 комфорт 1018.5 995.2
03 17.06 СЗ 5 н/о н/о +19.3 +13.1 67 +20 +20 1018.1 994.8
04 17.06 СЗ 3 н/о н/о +19.2 +13.0 67 +21 +21 комфорт 1018.8 995.4
05 17.06 СЗ 3 н/о н/о +19.8 +13.4 67 +22 +22 комфорт 1018.8 995.5
06 17.06 СЗ 3 н/о н/о +21.0 +14.1 65 +24 +24 комфорт 1018.6 995.4 +19.1 +22.7
07 17.06 С 1 н/о н/о +22.1 +13.9 60 +25 +25 комфорт 1018.7 995.6
08 17.06 СЗ 3 н/о н/о +22.0 +14.3 62 +25 +25 комфорт 1018.8 995.7
09 17.06 СЗ 4 н/о н/о +23.5 +14.4 57 +26 +26 жарко 1018.6 995.6
10 17.06 СЗ 1 н/о н/о +24.9 +15.7 57 +28 +28 жарко 1018.6 995.7
11 17.06 штиль 0 н/о н/о +25.4 +16.2 57 +29 +29 душно 1018.3 995.5
12 17.06 штиль 0 н/о н/о +25.8 +16.7 57 +29 +29 душно 1017.9 995.1
13 17.06 СЗ 1 н/о н/о +26.3 +17.0 57 +30 +30 душно 1017.5 994.8
15 17.06 СЗ 2 н/о н/о +25.8 +16.0 55 +29 +29 душно 1016.8 994.0
17 17.06 В 1 н/о н/о +23.7 +17.3 67 +28 +28 душно 1016.9 994.0
18 17.06 штиль 0 н/о в посл. час осадки н/о +23.0 +17.7 72 +28 +28 душно 1017.0 994.0 +20.7 +26.5 0.0
19 17.06 штиль 0 н/о н/о +21.7 +16.7 73 +26 +26 душно 1017.2 994.1
20 17.06 штиль 0 н/о н/о +20.7 +16.0 74 +24 +24 комфорт 1017.8 994.6

 

Местоположение метеостанции Луцмансбург (Австрия): широта 47.47 долгота 16.65 высота над уровнем моря 200 м.

В архиве по умолчанию представлена погода в Луцмансбурге за последнюю неделю. Архивные данные за месяц целиком и за предыдущие месяцы, начиная с января 2011 года, Вы можете получить, выбрав интересующий диапазон дат из раскрывающегося списка и нажав кнопку "Ввод!".


*Определитесь, кто Вы:
робот инопланетянин человек

Внимание! Время в таблицах - всемирное. Для получения местного времени необходимо прибавить поправку, которая равна 1 ч.

Смотрите также архив погоды в соседних городах и на ближайших метеорологических станциях:

Погода в Сомбатхее (Венгрия) (22 км)
Погода в Шопроне (Венгрия) (24 км)
Погода в Крумбахе (Австрия) (35 км)
Погода в Бад-Тацмансдорфе (Австрия) (36 км)
Погода в Кляйнциккене (Австрия) (39 км)
Погода в Айзенштадте (Австрия) (43 км)
Погода в Андау (Австрия) (44 км)
Погода в Мёнихкирхене (Австрия) (47 км)
Погода в Винер-Нойштадт (Австрия) (51 км)
Погода в Хартберге (Австрия) (55 км)

Пояснения к столбцам:

Ветер - указаны скорость ветра в м/с - средняя за 10 мин, порывы в срок и между сроками (в фигурных скобках) и направление, откуда дует ветер: С - северный, СВ - северо-восточный, В - восточный, ЮВ - юго-восточный, Ю - южный, ЮЗ - юго-западный, З - западный, СЗ - северо-западный.
Видимость - горизонтальная дальность видимости в метрах или километрах. При видимости от 1 до 10 км при отсутствии осадков обычно наблюдается дымка, при ухудшении видимости до 1 км и менее - туман. В сухую погоду видимость может ухудшаться дымом, пылью или мглою.
Явления - указаны атмосферные явления, наблюдавшиеся в срок или в последний час перед сроком; фигурными скобками обозначены явления, наблюдавшиеся между сроками (за 1-3 часа до срока); квадратными скобками обозначены град или гололедные отложения с указанием их диаметра в мм.
Облачность - указаны через наклонную черту общая и нижняя облачность в баллах и высота нижней границы облаков в метрах; квадратными скобками обозначены формы облаков: Ci - перистые, Cs - перисто-слоистые, Cc - перисто-кучевые, Ac - высококучевые, As - высокослоистые, Sc - слоисто-кучевые, Ns - слоисто-дождевые, Cu - кучевые, Cb - кучево-дождевые. Подробнее классификацию облаков см. в Атласе облаков (PDF).
T - Температура воздуха - температура, измеренная на высоте 2 м над землей.
Td - Температура точки росы - температура, при понижении до которой содержащийся в воздухе водяной пар достигнет насыщения.
f - Относительная влажность воздуха - влажноcть воздуха, измеренная на высоте 2 м над землей.
Te - Эффективная температура - температура, которую ощущает одетый по сезону человек в тени. Характеристика душности погоды. При расчете учитывается влияние влажности воздуха и скорости ветра на теплоощущения человека.
Tes - Эффективная температура на солнце - температура, которую ощущает человек, с поправкой на солнечный нагрев. Характеристика знойности погоды. Зависит от высоты солнца над горизонтом, облачности и скорости ветра. Ночью, в пасмурную погоду, а также при ветре 12 м/с и более поправка равна нулю.
P - Атмосферное давление - приведенное к уровню моря атмосферное давление.
Po - Атмосферное давление - измеренное на уровне метеостанции атмосферное давление.
Tmin - Минимальная температура - минимум температуры воздуха на высоте 2 м над землей.
Tmax - Максимальная температура - максимум температуры воздуха на высоте 2 м над землей.
R - Количество осадков - Количество выпавших осадков за период времени, мм. При наведении курсора мыши на число - период времени, за который выпало указанное количество осадков.
R24 - Количество осадков - Количество выпавших осадков за 24 часа, мм.
S - Снежный покров - Высота снежного покрова, см. При наведении курсора мыши на число - состояние снежного покрова и степень покрытия местности в баллах.